User: anonymous
Location: Durham
(35.9940°N, 78.8990°W)
Time: 02:54:29
(UTC-04:00)
Language:

Iridium 63 - Orbit

View from above orbital plane
View from above orbital plane
View from above satellite
View from above satellite

Ground track
Ground track

The orbit data is extracted from the following two-line orbital elements,

1 25286U 98021B   14244.50742700  .00000200  00000-0  64449-4 0  9491
2 25286 086.3970 290.4073 0002332 112.5403 011.8392 14.34222579858867
Epoch (UTC): 01 September 2014 12:10:41
Eccentricity: 0.0002332
inclination: 86.3970°
perigee height: 776 km
apogee height: 779 km
right ascension of ascending node: 290.4073°
argument of perigee: 112.5403°
revolutions per day: 14.34222579
mean anomaly at epoch: 11.8392°
orbit number at epoch: 85886

The dashed part of the orbit path shows where the satellite is in the earth's shadow,  

DLR